Location: Aydie
(43.5695°N, 0.1043°W)
Time: 13:32:57
(UTC+00:00)

SJ 16-02 - Pass Details

Date: 17 November 2025
Orbit: 585 x 594 km, 75.0° (Epoch: 06 December)

Event Time Altitude Azimuth Distance (km) Brightness Sun altitude
Rises 18:06:39 0° 190° (S) 2,821 5.0 -16.8°
Reaches altitude 10° 18:08:52 10° 187° (S) 1,924 4.1 -17.2°
Maximum altitude 18:13:07 65° 106° (ESE) 659 1.2 -18.0°
Enters shadow 18:15:17 28° 32° (NNE) 1,138 2.3 -18.4°
